This is the latest recevied weather packets stored in our database for station/object W5CMS-13. If no packets are shown the sender has not sent any weather packets the latest 10 day(s).
| Time | Temp. | Humidity | Pressure | Rain* | Wind** | Luminosity | Snow |
|---|---|---|---|---|---|---|---|
| 1787956517 | 38.33° C | 39% | 1013.2 hPa | 0 mm | - | - | - |
| 1787955917 | 38.33° C | 39% | 1013.5 hPa | 0 mm | - | - | - |
| 1787955317 | 38.33° C | 38% | 1013.6 hPa | 0 mm | - | - | - |
| 1787954717 | 38.33° C | 38% | 1013.6 hPa | 0 mm | - | - | - |
| 1787954122 | 38.33° C | 39% | 1013.8 hPa | 0 mm | - | - | - |
| 1787953519 | 38.33° C | 38% | 1013.9 hPa | 0 mm | - | - | - |
| 1787952917 | 38.33° C | 39% | 1014.1 hPa | 0 mm | - | - | - |
| 1787952317 | 37.78° C | 39% | 1014.2 hPa | 0 mm | - | - | - |
| 1787951717 | 37.78° C | 40% | 1014.3 hPa | 0 mm | - | - | - |
| 1787951117 | 38.33° C | 40% | 1014.7 hPa | 0 mm | - | - | - |
| 1787950517 | 38.33° C | 40% | 1014.9 hPa | 0 mm | - | - | - |
| 1787949916 | 38.33° C | 40% | 1015.1 hPa | 0 mm | - | - | - |
| 1787949317 | 37.78° C | 40% | 1015.2 hPa | 0 mm | - | - | - |
| 1787948717 | 38.33° C | 40% | 1015.4 hPa | 0 mm | - | - | - |
| 1787948118 | 37.78° C | 41% | 1015.5 hPa | 0 mm | - | - | - |
| 1787947517 | 37.22° C | 42% | 1015.7 hPa | 0 mm | - | - | - |
| 1787946917 | 37.78° C | 41% | 1015.9 hPa | 0 mm | - | - | - |
| 1787946317 | 37.78° C | 41% | 1016 hPa | 0 mm | - | - | - |
| 1787945717 | 37.78° C | 42% | 1016.1 hPa | 0 mm | - | - | - |
| 1787945118 | 36.67° C | 42% | 1016.3 hPa | 0 mm | - | - | - |
| 1787944517 | 37.22° C | 42% | 1016.3 hPa | 0 mm | - | - | - |
| 1787943917 | 37.22° C | 43% | 1016.4 hPa | 0 mm | - | - | - |
| 1787943317 | 37.22° C | 43% | 1016.6 hPa | 0 mm | - | - | - |
| 1787942717 | 37.22° C | 42% | 1016.6 hPa | 0 mm | - | - | - |
| 1787942117 | 37.22° C | 45% | 1016.7 hPa | 0 mm | - | - | - |
* Rain latest hour (hover to see other rain measurements)
** Current wind speed in m/s (hover to see current wind gust speed)